User: anonymous   Login
Location: Sabalos
(43.2860°N, 0.1414°E)
Time: 23:00:56
(UTC+00:00)
Language:

Cosmos 1340 - Orbit

View from above orbital plane
View from above orbital plane
View from above satellite
View from above satellite

Ground track
Ground track

The orbit data is extracted from the following two-line orbital elements,

1 13067U 82013A   20273.30771064 +.00001093 +00000-0 +48287-4 0  9999
2 13067 081.1885 173.3271 0004514 087.5525 272.6223 15.20895879109873
Epoch (UTC): 29 September 2020 07:23:06
Eccentricity: 0.0004514
inclination: 81.1885°
perigee height: 500 km
apogee height: 506 km
right ascension of ascending node: 173.3271°
argument of perigee: 87.5525°
revolutions per day: 15.20895879
mean anomaly at epoch: 272.6223°
orbit number at epoch: 10987

The dashed part of the orbit path shows where the satellite is in the earth's shadow,  

DLR